Location: Mequon Rotary Park
(43.2522°N, 87.9594°W)
Time: 11:45:06
(UTC-05:00)

Daily predictions for brighter satellites

Satellite Brightness Start Highest point End
(mag) Time Altitude Azimuth Time Altitude Azimuth Time Altitude Azimuth
Cosmos 1346 Rocket 3.1 20:05:56 10° N 20:09:46 48° ENE 20:13:37 10° SSE
Cosmos 2227 Rocket 2.5 20:06:18 10° NNW 20:11:51 52° ENE 20:17:21 10° SE
Cosmos 1544 Rocket 3.5 20:08:34 10° S 20:12:54 67° E 20:17:18 10° NNE
Tiangong 1 1.0 20:09:57 10° WSW 20:13:02 70° S 20:16:07 10° E
Cosmos 1536 3.3 20:09:21 10° SSW 20:13:19 66° W 20:17:20 10° N
OTV 4 1.7 20:11:32 10° WSW 20:14:08 27° S 20:16:44 10° SE
USA 186 1.9 20:11:50 10° SSE 20:14:49 45° ENE 20:17:39 10° N
FENGYUN 3A 3.6 20:10:11 10° SSE 20:15:31 76° ENE 20:20:53 10° N
EP 2 4.1 20:14:11 10° SSW 20:16:46 80° ESE 20:19:36 10° NE
Cosmos 2208 Rocket 4.1 20:12:59 10° S 20:18:09 57° ESE 20:23:27 10° NNE
NOSS 3-4 (A) 3.9 20:12:27 10° NW 20:19:29 86° NE 20:26:57 10° SE
RESURS DK-1 4.5 20:17:22 10° NNE 20:19:35 14° NE 20:21:47 10° E
NOSS 3-4 (C) 3.9 20:12:34 10° NW 20:19:37 85° NE 20:27:04 10° SE
BREEZE-M TANK 4.0 20:02:25 10° W 20:20:50 81° N 20:24:54 10° E
Meteor 1-5 Rocket 4.1 20:16:38 10° S 20:21:55 71° E 20:27:22 10° NNE
Cosmos 2082 3.8 20:19:45 10° NNW 20:25:20 62° ENE 20:30:54 10° SE
Cosmos 2297 Rocket 2.5 20:22:00 10° NNW 20:27:31 50° ENE 20:32:48 11° SE
CZ-4 DEB 3.6 20:26:40 12° SE 20:29:10 31° ENE 20:32:01 10° N
Cosmos 1570 Rocket 4.0 20:30:01 10° SSW 20:35:19 86° ESE 20:40:37 10° NNE
Envisat 3.7 20:34:13 12° SE 20:38:23 37° ENE 20:43:02 10° N
Cosmos 1821 Rocket 4.4 20:33:09 10° SSW 20:39:14 68° W 20:45:19 10° N
Cosmos 1605 Rocket 4.0 20:35:48 10° S 20:42:08 76° E 20:48:24 10° N
Cosmos 1515 4.3 20:38:48 10° N 20:42:26 38° ENE 20:44:56 17° SE
SJ-11-01 4.4 20:38:18 10° SSE 20:42:53 55° ENE 20:47:28 10° N
OAO 2 Rocket 4.4 20:41:48 10° SW 20:46:01 27° SSE 20:48:32 18° SE
NOSS 7 (E) 4.4 20:42:41 10° SW 20:46:07 83° NW 20:49:32 10° NE
YAOGAN 6 4.3 20:49:35 16° E 20:50:22 17° ENE 20:52:51 10° NNE
Cosmos 2150 Rocket 4.4 20:46:14 10° N 20:51:09 44° ENE 20:54:22 20° SE
Iridium 4 Rocket 3.4 20:46:50 10° N 20:52:01 65° E 20:56:42 10° SSE
Cosmos 1743 4.0 20:53:16 22° E 20:53:47 22° E 20:56:52 10° NE
YAOGAN 11 4.1 20:50:15 11° SSE 20:54:32 75° ENE 20:59:01 10° N
NOSS 7 (H) 4.2 20:52:42 10° SSW 20:55:56 71° ESE 20:59:20 10° NE
DELTA 2 R/B (1) 3.8 20:51:34 10° W 20:57:00 56° S 21:00:24 22° ESE
Cosmos 1975 2.8 20:54:05 10° S 20:58:10 76° E 21:02:17 10° NNE
Cosmos 1066 Rocket 4.4 20:53:44 10° N 20:59:16 55° ENE 21:03:26 18° SSE
Cosmos 1697 Rocket 2.9 21:01:50 10° S 21:07:12 46° ESE 21:12:36 10° NE
Lacrosse 5 rocket 1.1 21:04:13 10° NW 21:07:55 70° SW 21:09:24 33° SSE
H-2A R/B 2.3 21:06:31 29° SE 21:08:13 47° ENE 21:12:11 10° N
Cosmos 2278 4.1 21:03:59 10° SW 21:09:37 65° WNW 21:15:19 10° NNE
ALOS 4.2 21:07:25 10° SSW 21:11:27 29° W 21:15:31 10° NW
Cosmos 1626 Rocket 3.8 21:07:12 10° NNW 21:11:35 68° W 21:15:36 12° S
ERS-1 Rocket 3.0 21:07:44 14° SSE 21:12:06 84° WSW 21:17:09 10° NNW
deb Chang Zheng 4 3.8 21:11:37 10° NNE 21:15:58 50° E 21:18:17 25° SSE
Cosmos 1898 Rocket 3.5 21:10:53 10° NNW 21:16:13 76° ENE 21:19:08 27° SSE
Cosmos 1461 4.1 21:15:06 10° NW 21:18:47 34° WSW 21:21:13 17° S
Cosmos 1602 Rocket 4.2 21:15:36 10° NNW 21:19:59 55° W 21:24:05 11° S
Cosmos 1758 Rocket 4.4 21:18:04 10° NNE 21:21:59 31° ENE 21:22:20 31° E
Nimbus 7 Rocket 4.5 21:16:04 10° NNE 21:22:05 59° ESE 21:27:56 11° S
Cosmos 2369 4.4 21:17:24 10° SW 21:22:59 58° WNW 21:28:38 10° NNE
Cosmos 1763 Rocket 4.1 21:24:17 32° ESE 21:24:19 32° E 21:28:48 10° NE
Cosmos 1459 Rocket 3.8 21:21:24 13° S 21:26:46 68° E 21:32:50 10° NNE
Cosmos 1980 Rocket 2.5 21:26:51 28° SSE 21:29:20 43° ESE 21:34:41 10° NE
SL-24 R/B - RUBIN 2 4.3 21:23:28 10° SSW 21:29:21 86° ESE 21:35:55 10° NE
Cosmos 1939 Rocket 3.3 21:27:38 23° S 21:30:03 61° W 21:34:11 10° NNW
ARGOS 3.7 21:30:51 34° ESE 21:32:19 41° ENE 21:37:21 10° N
BREEZE-M DEB (TANK) 4.2 21:28:45 10° WNW 21:32:33 70° NNE 21:38:48 24° ESE
Cosmos 468 Rocket 3.8 21:31:27 10° SSW 21:36:35 88° ESE 21:41:44 10° NNE
Lacrosse 5 1.8 21:32:54 10° NW 21:37:59 74° NE 21:39:26 46° ESE
Cosmos 2084 3.5 21:37:33 10° NW 21:41:36 68° SW 21:42:21 54° S
SPOT 5 2.9 21:41:21 38° SSE 21:43:22 88° WSW 21:48:16 10° NNW
Cosmos 2058 Rocket 3.7 21:44:37 39° ENE 21:44:37 39° ENE 21:48:15 10° NNE
Cosmos 1814 Rocket 3.9 21:39:26 10° SSW 21:44:47 87° ESE 21:50:08 10° NNE
Cosmos 841 Rocket 3.8 21:45:04 44° E 21:45:04 44° E 21:49:52 10° NNE
Cosmos 1666 4.1 21:47:17 26° NE 21:47:17 26° NE 21:49:16 10° NNE
Meteor 1-21 4.2 21:42:01 10° N 21:47:48 79° E 21:49:52 42° SSE
USA 215 3.7 21:44:53 29° E 21:48:06 54° NNE 21:54:26 10° NW
Tiangong 1 2.4 21:46:24 10° W 21:48:23 36° W 21:48:23 36° W
MetOp-B 4.1 21:49:21 42° SSE 21:51:16 88° WSW 21:56:40 10° NNW
Cosmos 1802 Rocket 4.0 21:47:44 18° S 21:52:37 89° W 21:59:06 10° N
Cosmos 1606 Rocket 3.4 21:54:42 69° S 21:55:12 86° E 21:59:40 10° N
Cosmos 2227 Rocket 4.1 21:51:08 10° NW 21:55:31 23° WSW 21:59:53 10° SSW
Cosmos 2263 Rocket 3.6 21:53:03 10° N 21:57:22 22° NE 21:58:15 21° ENE
SL-08 R/B 4.4 21:55:42 40° SSE 21:58:03 71° E 22:04:14 10° NNE
RESURS DK-1 2.4 21:54:00 10° NNW 21:58:08 70° WSW 21:58:17 69° SW
Cosmos 2322 Rocket 3.7 22:03:22 21° ENE 22:03:22 21° ENE 22:05:41 10° NE
CZ-3C R/B 4.5 21:51:34 10° WSW 22:05:10 17° SW 22:09:52 12° SSW
Cosmos 2360 4.1 22:06:40 61° ESE 22:06:54 62° ESE 22:12:34 10° NNE
SL-08 RB Rocket 3.7 22:07:25 68° ENE 22:07:25 68° ENE 22:11:57 10° N
Landsat 7 4.3 22:07:46 47° ENE 22:07:46 47° ENE 22:12:01 10° N
Cosmos 1340 3.4 22:06:23 10° NNW 22:09:50 51° W 22:09:50 51° W
SL-19 R/B 4.0 22:05:15 10° NNE 22:10:49 86° ESE 22:12:00 56° S
Meteor 2-9 Rocket 4.0 22:10:24 67° SE 22:10:50 71° E 22:16:16 10° NNE
Cosmos 2016 Rocket 4.0 22:07:39 29° SSW 22:10:55 78° W 22:17:09 10° N
Cosmos 2297 Rocket 4.0 22:06:44 10° NW 22:11:12 24° WSW 22:14:38 14° SSW
Cosmos 2227 4.1 22:08:47 10° NNW 22:14:34 88° WSW 22:15:22 68° SSE
CZ-4 R/B 4.4 22:10:59 10° NNE 22:14:27 44° NE 22:14:27 44° NE
BREEZE-M DEB (TANK) 4.1 21:55:45 10° WNW 22:16:36 74° NNE 22:18:46 44° E
H-2A R/B 2.3 22:19:51 53° NE 22:19:51 53° NE 22:24:16 10° N
Cosmos 1726 Rocket 3.9 22:19:24 61° W 22:19:31 61° W 22:23:53 10° N
Terra 2.5 22:23:37 43° NE 22:23:37 43° NE 22:27:21 10° N
YAOGAN 6 4.2 22:24:05 32° W 22:24:05 32° W 22:27:04 10° NNW
ASTEX 1 4.1 22:19:30 10° N 22:24:21 50° WNW 22:25:57 36° SW
Cosmos 2098 Rocket 4.2 22:26:49 38° SSW 22:29:43 75° W 22:35:43 10° N
GEOS 3 Rocket 4.0 22:26:41 10° NE 22:30:25 49° NE 22:30:25 49° NE
SPOT 1/Viking Rocket 4.1 22:37:52 47° WSW 22:38:24 48° W 22:43:27 10° NNW
Tsikada Rocket 4.2 22:32:52 10° NNW 22:39:16 71° W 22:40:26 58° SSW
CZ-4B R/B 3.8 22:38:32 10° N 22:43:00 59° WNW 22:43:00 59° WNW
H-2A R/B 4.4 22:43:39 14° WSW 22:44:31 15° W 22:46:51 10° WNW
BREEZE-M DEB (TANK) 3.3 22:40:06 10° WSW 22:48:16 67° WNW 22:48:16 67° WNW
SL-16 R/B 2.9 22:57:21 46° NE 22:57:21 46° NE 23:01:17 10° NNE
Cosmos 1125 Rocket 4.2 22:59:22 10° NNW 23:03:32 48° WNW 23:03:32 48° WNW
Cosmos 2346 Rocket 4.5 23:00:57 10° N 23:06:51 76° NW 23:06:51 76° NW
Meteor 2-5 Rocket 4.1 23:06:30 10° NNW 23:11:37 67° NNW 23:11:37 67° NNW
Cosmos 1980 Rocket 3.8 23:08:28 10° WSW 23:13:27 31° NW 23:18:30 10° N
Cosmos 2360 Rocket 4.0 23:17:04 21° NE 23:17:04 21° NE 23:19:01 10° NE
Lacrosse 5 4.1 23:16:49 10° WNW 23:18:37 17° W 23:18:37 17° W
USA 215 3.8 23:32:14 47° W 23:32:14 47° W 23:37:29 10° WNW
Meteor 1-24 Rocket 4.4 23:33:42 10° N 23:38:22 56° NNW 23:38:22 56° NNW
Cosmos 2263 Rocket 3.2 23:36:15 10° NNW 23:39:56 41° NW 23:39:56 41° NW
Cosmos 2322 Rocket 3.3 23:45:08 40° NW 23:45:08 40° NW 23:50:03 10° NNE
